{"data":{"norad_id":62069,"epoch":"2026-05-25T04:24:12.229632Z","epoch_age_seconds":55050,"freshness":"FRESH","line1":"1 62069U 24217N   26145.18347488  .00108524  00000+0  88728-3 0  9995","line2":"2 62069  53.1574  54.4692 0000805 106.3320 253.7786 15.69755443 87123","mean_motion":15.69755443,"eccentricity":8.05e-5,"inclination_deg":53.1574,"raan_deg":54.4692,"arg_perigee_deg":106.332,"mean_anomaly_deg":253.7786,"bstar":0.00088728,"rev_number":8712,"period_min":91.734034522472,"perigee_km":359.05432552167,"apogee_km":360.13910064948,"semimajor_km":6737.7337130856,"source":"CELESTRAK","updated_at":"2026-05-25T13:38:19.552748Z"}}